This is the latest recevied weather packets stored in our database for station/object KL1IO. If no packets are shown the sender has not sent any weather packets the latest 1 day(s).
| Time | Temp. | Humidity | Pressure | Rain* | Wind** | Luminosity | Snow |
|---|---|---|---|---|---|---|---|
| 1777988636 | 3.33° C | 99% | 1009.7 hPa | 0 mm | 0.45 m/s, 200° | 2 W/m² | - |
| 1777988333 | 3.33° C | 99% | 1009.5 hPa | 0 mm | 0 m/s | 1 W/m² | - |
| 1777988029 | 3.33° C | 99% | 1009.7 hPa | 0 mm | 0 m/s | 1 W/m² | - |
| 1777987725 | 3.33° C | 99% | 1009.7 hPa | 0 mm | 0 m/s | 1 W/m² | - |
| 1777987422 | 3.33° C | 99% | 1009.4 hPa | 1.27 mm | 0 m/s | 1 W/m² | - |
| 1777987119 | 2.78° C | 99% | 1009.2 hPa | 1.27 mm | 0 m/s | 1 W/m² | - |
| 1777986817 | 2.78° C | 99% | 1009.1 hPa | 0 mm | 0.45 m/s, 234° | 1 W/m² | - |
| 1777986514 | 2.78° C | 99% | 1009 hPa | 0 mm | 0 m/s | 1 W/m² | - |
| 1777986212 | 2.78° C | 99% | 1009 hPa | 0 mm | 0 m/s | 0 W/m² | - |
| 1777985909 | 2.78° C | 99% | 1009.2 hPa | 1.78 mm | 0 m/s | 0 W/m² | - |
| 1777985606 | 2.78° C | 99% | 1009.6 hPa | 1.78 mm | 0.45 m/s, 292° | 0 W/m² | - |
| 1777985303 | 2.78° C | 99% | 1009.7 hPa | 1.27 mm | 0 m/s | 0 W/m² | - |
| 1777985000 | 2.22° C | 99% | 1009.6 hPa | 1.27 mm | 0 m/s | 0 W/m² | - |
| 1777984696 | 2.78° C | 99% | 1009.3 hPa | 0 mm | 0 m/s | 0 W/m² | - |
| 1777984393 | 2.78° C | 99% | 1009.4 hPa | 0 mm | 0 m/s | 0 W/m² | - |
| 1777984089 | 2.22° C | 99% | 1009.4 hPa | 1.78 mm | 0 m/s | 0 W/m² | - |
| 1777983786 | 2.22° C | 99% | 1009.2 hPa | 1.78 mm | 0 m/s | 0 W/m² | - |
| 1777983482 | 2.78° C | 99% | 1009.2 hPa | 0 mm | 0 m/s | 0 W/m² | - |
| 1777983179 | 2.78° C | 99% | 1009.3 hPa | 0 mm | 0 m/s | 0 W/m² | - |
| 1777982876 | 2.78° C | 99% | 1009.3 hPa | 0 mm | 0 m/s | 0 W/m² | - |
| 1777982572 | 2.78° C | 99% | 1009.1 hPa | 0 mm | 0.45 m/s, 187° | 0 W/m² | - |
| 1777982271 | 2.78° C | 99% | 1009 hPa | 0 mm | 0 m/s | 0 W/m² | - |
| 1777981968 | 2.78° C | 99% | 1009.2 hPa | 0 mm | 0 m/s | 0 W/m² | - |
| 1777981666 | 2.78° C | 99% | 1008.9 hPa | 0 mm | 0 m/s | 0 W/m² | - |
| 1777981362 | 2.78° C | 99% | 1009 hPa | 1.27 mm | 0 m/s | 0 W/m² | - |
* Rain latest hour (hover to see other rain measurements)
** Current wind speed in m/s (hover to see current wind gust speed)